When you browse on this site, cookies collect data to enhance your experience and personalize the content and advertising you see.
Visit our Privacy Policy to learn more. By continuing to use the site, you agree to this use of cookies and data.
  • In United Kingdom
  • List of Countries
  • For 7 days
  • Water Temperature
  • Satellite Maps
  • Weather Map
  • Weather Widgets
  • user-avatar
    Login

    Hourly Weather Sankt Polten

    Today, 25 April, Thursday

    Time Temperature Precipitation Wind Pressure Humidity
    00:00 +13°C° 0 mm 1 mps 732 mmHg 83%
    01:00 +12°C° 0 mm 1 mps 732 mmHg 84%
    02:00 +12°C° 0 mm 1 mps 732 mmHg 85%
    03:00 +11°C° 0 mm 1 mps 733 mmHg 87%
    04:00 +11°C° 0 mm 1 mps 733 mmHg 88%
    05:00 +13°C° 0 mm 1 mps 733 mmHg 82%
    06:00 +14°C° 0 mm 1 mps 733 mmHg 76%
    07:00 +16°C° 0 mm 1 mps 734 mmHg 70%
    08:00 +19°C° 0 mm 1 mps 734 mmHg 62%
    09:00 +21°C° 0 mm 1 mps 734 mmHg 54%
    10:00 +23°C° 0 mm 2 mps 734 mmHg 46%
    11:00 +24°C° 0 mm 2 mps 734 mmHg 43%
    12:00 +25°C° 0 mm 3 mps 733 mmHg 41%
    13:00 +26°C° 0 mm 3 mps 733 mmHg 38%
    14:00 +27°C° 0 mm 3 mps 733 mmHg 38%
    15:00 +27°C° 0 mm 2 mps 732 mmHg 37%
    16:00 +27°C° 0 mm 2 mps 732 mmHg 37%
    17:00 +24°C° 0 mm 2 mps 732 mmHg 44%
    18:00 +21°C° 0 mm 2 mps 731 mmHg 51%
    19:00 +18°C° 0 mm 2 mps 731 mmHg 59%
    20:00 +17°C° 0 mm 2 mps 731 mmHg 60%
    21:00 +16°C° 0 mm 2 mps 731 mmHg 62%
    22:00 +14°C° 0 mm 2 mps 731 mmHg 64%
    23:00 +14°C° 0 mm 2 mps 731 mmHg 67%

    Tomorrow, 26 April, Friday

    Time Temperature Precipitation Wind Pressure Humidity
    00:00 +13°C° 0 mm 2 mps 731 mmHg 69%
    01:00 +13°C° 0 mm 2 mps 731 mmHg 71%
    02:00 +12°C° 0 mm 2 mps 731 mmHg 73%
    03:00 +12°C° 0 mm 2 mps 731 mmHg 74%
    04:00 +12°C° 0 mm 2 mps 731 mmHg 76%
    05:00 +13°C° 0 mm 1 mps 731 mmHg 72%
    06:00 +15°C° 0 mm 1 mps 731 mmHg 69%
    07:00 +16°C° 0 mm 1 mps 731 mmHg 65%
    08:00 +20°C° 0 mm 1 mps 731 mmHg 57%
    09:00 +21°C° 0 mm 2 mps 730 mmHg 49%
    10:00 +25°C° 0 mm 2 mps 730 mmHg 42%
    11:00 +25°C° 0 mm 3 mps 730 mmHg 41%
    12:00 +25°C° 0 mm 4 mps 729 mmHg 39%
    13:00 +26°C° 0 mm 5 mps 729 mmHg 38%
    14:00 +26°C° 0 mm 4 mps 729 mmHg 39%
    15:00 +26°C° 0 mm 4 mps 729 mmHg 40%
    16:00 +26°C° 0 mm 3 mps 729 mmHg 40%
    17:00 +20°C° 0 mm 5 mps 730 mmHg 53%
    18:00 +14°C° 0 mm 6 mps 730 mmHg 66%
    19:00 +9°C° 0 mm 8 mps 731 mmHg 79%
    20:00 +9°C° 0 mm 7 mps 732 mmHg 78%
    21:00 +8°C° 0 mm 7 mps 733 mmHg 77%
    22:00 +8°C° 0 mm 7 mps 734 mmHg 76%
    23:00 +8°C° 0 mm 6 mps 734 mmHg 77%

    Day after tomorrow, 27 April, Saturday

    Time Temperature Precipitation Wind Pressure Humidity
    00:00 +8°C° 0 mm 6 mps 735 mmHg 77%
    01:00 +8°C° 0 mm 6 mps 735 mmHg 78%
    02:00 +8°C° 0 mm 6 mps 735 mmHg 78%
    03:00 +8°C° 0 mm 6 mps 735 mmHg 78%
    04:00 +8°C° 0 mm 6 mps 735 mmHg 78%
    05:00 +8°C° 0 mm 5 mps 735 mmHg 78%
    06:00 +8°C° 0 mm 5 mps 735 mmHg 78%
    07:00 +8°C° 0 mm 5 mps 736 mmHg 78%
    08:00 +8°C° 0 mm 5 mps 736 mmHg 74%
    09:00 +9°C° 0 mm 5 mps 736 mmHg 71%
    10:00 +10°C° 0 mm 6 mps 736 mmHg 68%
    11:00 +12°C° 0 mm 5 mps 735 mmHg 64%
    12:00 +13°C° 0 mm 5 mps 735 mmHg 60%
    13:00 +14°C° 0 mm 5 mps 734 mmHg 56%
    14:00 +15°C° 0 mm 5 mps 734 mmHg 55%
    15:00 +15°C° 0 mm 5 mps 734 mmHg 54%
    16:00 +15°C° 0 mm 4 mps 733 mmHg 53%
    17:00 +14°C° 0 mm 4 mps 734 mmHg 59%
    18:00 +12°C° 0 mm 4 mps 734 mmHg 66%
    19:00 +11°C° 0 mm 4 mps 734 mmHg 72%
    20:00 +10°C° 0.1 mm 4 mps 734 mmHg 77%
    21:00 +9°C° 0.1 mm 3 mps 735 mmHg 83%
    22:00 +9°C° 0.1 mm 3 mps 735 mmHg 88%
    23:00 +8°C° 0 mm 3 mps 735 mmHg 90%

    28 April, Sunday

    Time Temperature Precipitation Wind Pressure Humidity
    00:00 +7°C° 0 mm 2 mps 735 mmHg 91%
    01:00 +7°C° 0 mm 2 mps 735 mmHg 93%
    02:00 +7°C° 0 mm 2 mps 735 mmHg 93%
    03:00 +7°C° 0 mm 2 mps 735 mmHg 93%
    04:00 +7°C° 0 mm 2 mps 736 mmHg 94%
    05:00 +8°C° 0 mm 2 mps 736 mmHg 89%
    06:00 +8°C° 0 mm 2 mps 736 mmHg 85%
    07:00 +9°C° 0 mm 2 mps 736 mmHg 81%
    08:00 +10°C° 0 mm 2 mps 736 mmHg 74%
    09:00 +11°C° 0 mm 3 mps 736 mmHg 66%
    10:00 +13°C° 0 mm 3 mps 736 mmHg 59%
    11:00 +14°C° 0 mm 2 mps 735 mmHg 56%
    12:00 +15°C° 0 mm 2 mps 735 mmHg 53%
    13:00 +16°C° 0 mm 2 mps 735 mmHg 51%
    14:00 +16°C° 0 mm 2 mps 735 mmHg 51%
    15:00 +16°C° 0 mm 2 mps 734 mmHg 51%
    16:00 +17°C° 0 mm 2 mps 734 mmHg 51%
    17:00 +15°C° 0.2 mm 1 mps 734 mmHg 61%
    18:00 +13°C° 0.2 mm 1 mps 735 mmHg 71%
    19:00 +11°C° 0.2 mm 1 mps 735 mmHg 81%
    20:00 +11°C° 0.2 mm 1 mps 735 mmHg 83%
    21:00 +10°C° 0.2 mm 1 mps 736 mmHg 85%
    22:00 +10°C° 0.2 mm 1 mps 736 mmHg 87%
    23:00 +10°C° 0.1 mm 1 mps 736 mmHg 89%

    29 April, Monday

    Time Temperature Precipitation Wind Pressure Humidity
    00:00 +9°C° 0.1 mm 1 mps 736 mmHg 92%
    01:00 +9°C° 0.1 mm 1 mps 736 mmHg 94%
    02:00 +8°C° 0 mm 1 mps 736 mmHg 94%
    03:00 +8°C° 0 mm 1 mps 735 mmHg 95%
    04:00 +8°C° 0 mm 1 mps 735 mmHg 95%
    05:00 +8°C° 0.1 mm 2 mps 735 mmHg 93%
    06:00 +9°C° 0.1 mm 2 mps 735 mmHg 92%
    07:00 +9°C° 0.1 mm 2 mps 735 mmHg 90%
    08:00 +10°C° 0.2 mm 2 mps 735 mmHg 87%
    09:00 +11°C° 0.2 mm 3 mps 735 mmHg 84%
    10:00 +11°C° 0.2 mm 3 mps 735 mmHg 80%
    11:00 +12°C° 0.1 mm 4 mps 734 mmHg 77%
    12:00 +13°C° 0.1 mm 4 mps 734 mmHg 74%
    13:00 +13°C° 0.1 mm 4 mps 734 mmHg 71%
    14:00 +13°C° 0.2 mm 4 mps 733 mmHg 71%
    15:00 +13°C° 0.2 mm 4 mps 733 mmHg 72%
    16:00 +13°C° 0.2 mm 4 mps 733 mmHg 72%
    17:00 +12°C° 0.1 mm 4 mps 733 mmHg 78%
    18:00 +11°C° 0.1 mm 3 mps 733 mmHg 83%
    19:00 +10°C° 0.1 mm 2 mps 733 mmHg 89%
    20:00 +10°C° 0 mm 2 mps 733 mmHg 91%
    21:00 +10°C° 0 mm 2 mps 733 mmHg 92%
    22:00 +9°C° 0 mm 2 mps 734 mmHg 94%
    23:00 +9°C° 0 mm 2 mps 734 mmHg 94%

    30 April, Tuesday

    Time Temperature Precipitation Wind Pressure Humidity
    00:00 +9°C° 0 mm 3 mps 733 mmHg 94%
    01:00 +9°C° 0 mm 3 mps 733 mmHg 94%
    02:00 +9°C° 0.1 mm 3 mps 733 mmHg 94%
    03:00 +9°C° 0.1 mm 3 mps 733 mmHg 95%
    04:00 +9°C° 0.1 mm 3 mps 733 mmHg 95%
    05:00 +9°C° 0.2 mm 3 mps 733 mmHg 93%
    06:00 +9°C° 0.2 mm 3 mps 733 mmHg 91%
    07:00 +10°C° 0.2 mm 3 mps 733 mmHg 89%
    08:00 +10°C° 0.1 mm 3 mps 733 mmHg 88%
    09:00 +10°C° 0.1 mm 3 mps 733 mmHg 87%
    10:00 +12°C° 0.1 mm 2 mps 733 mmHg 86%
    11:00 +11°C° 0.1 mm 3 mps 733 mmHg 83%
    12:00 +12°C° 0.1 mm 3 mps 733 mmHg 79%
    13:00 +13°C° 0.1 mm 3 mps 733 mmHg 75%
    14:00 +13°C° 0.1 mm 3 mps 733 mmHg 76%
    15:00 +12°C° 0.1 mm 3 mps 733 mmHg 78%
    16:00 +12°C° 0.1 mm 3 mps 733 mmHg 79%
    17:00 +12°C° 0.6 mm 2 mps 733 mmHg 84%
    18:00 +12°C° 0.6 mm 2 mps 733 mmHg 89%
    19:00 +11°C° 0.6 mm 1 mps 733 mmHg 94%
    20:00 +11°C° 1 mm 1 mps 734 mmHg 95%
    21:00 +11°C° 1 mm 1 mps 734 mmHg 96%
    22:00 +10°C° 1 mm 1 mps 735 mmHg 97%
    23:00 +10°C° 0.3 mm 1 mps 735 mmHg 97%
    Show more